EW4427 Weather Reports


Display with metric or nautical units.
time (UTC)temp
F
wind
direction
speed
MPH
gust
MPH
rain 1hr
in
rain 24hr
in
rain mn
in
humidity
%
barometer
mb
20260509171607 69 0 1.0 8.0 0.00 0.00 0.00 44 1002.8
20260509171045 67 308 3.0 8.0 0.00 0.00 0.00 42 1002.7
20260509170545 67 192 2.0 7.0 0.00 0.00 0.00 43 1002.9
20260509170050 66 223 1.0 7.0 0.00 0.00 0.00 48 1002.7
20260509165545 65 189 1.0 7.0 0.00 0.00 0.00 44 1002.7
20260509165045 64 207 2.0 6.0 0.00 0.00 0.00 44 1002.9
20260509164557 64 219 1.0 5.0 0.00 0.00 0.00 43 1002.9
20260509164045 63 186 0.0 2.0 0.00 0.00 0.00 48 1003.0
20260509163547 63 0 0.0 5.0 0.00 0.00 0.00 44 1003.2
20260509163059 63 0 0.0 5.0 0.00 0.00 0.00 46 1003.1
20260509162545 62 200 0.0 5.0 0.00 0.00 0.00 42 1003.1
20260509162044 62 0 0.0 4.0 0.00 0.00 0.00 45 1003.2
20260509161551 63 201 1.0 4.0 0.00 0.00 0.00 42 1003.3
20260509161045 63 0 0.0 4.0 0.00 0.00 0.00 43 1003.3
20260509160546 63 0 0.0 4.0 0.00 0.00 0.00 47 1003.3
20260509160054 62 0 0.0 6.0 0.00 0.00 0.00 45 1003.3
20260509155545 63 107 1.0 6.0 0.00 0.00 0.00 43 1003.3
20260509155048 63 0 0.0 4.0 0.00 0.00 0.00 46 1003.3
20260509154553 63 0 0.0 4.0 0.00 0.00 0.00 43 1003.3
20260509154045 63 0 0.0 4.0 0.00 0.00 0.00 47 1003.2
20260509153545 64 0 0.0 6.0 0.00 0.00 0.00 45 1003.2
20260509153053 64 0 0.0 6.0 0.00 0.00 0.00 49 1003.3
20260509152545 64 80 0.0 4.0 0.00 0.00 0.00 51 1003.2
20260509152046 63 0 0.0 2.0 0.00 0.00 0.00 52 1003.1
20260509151552 62 0 0.0 4.0 0.00 0.00 0.00 55 1002.8
20260509151048 62 200 0.0 4.0 0.00 0.00 0.00 53 1002.7
20260509150546 61 202 0.0 4.0 0.00 0.00 0.00 53 1002.6
20260509150052 61 0 0.0 5.0 0.00 0.00 0.00 56 1002.6
20260509145544 60 0 0.0 5.0 0.00 0.00 0.00 56 1002.6
20260509145043 60 0 1.0 5.0 0.00 0.00 0.00 58 1002.4
20260509144552 60 205 1.0 5.0 0.00 0.00 0.00 59 1002.4
20260509144044 61 211 1.0 3.0 0.00 0.00 0.00 57 1002.3
20260509143544 61 221 1.0 4.0 0.00 0.00 0.00 57 1002.4
20260509143104 61 0 0.0 4.0 0.00 0.00 0.00 57 1002.5
20260509142547 61 199 0.0 4.0 0.00 0.00 0.00 60 1002.4
20260509142045 60 200 0.0 4.0 0.00 0.00 0.00 59 1002.4
20260509141554 60 203 0.0 3.0 0.00 0.00 0.00 59 1002.4
20260509141047 60 191 0.0 3.0 0.00 0.00 0.00 59 1002.3
20260509140545 61 0 0.0 3.0 0.00 0.00 0.00 58 1002.2
20260509140058 61 0 0.0 2.0 0.00 0.00 0.00 59 1002.3
20260509135547 61 190 0.0 2.0 0.00 0.00 0.00 58 1002.2
20260509135047 60 0 0.0 2.0 0.00 0.00 0.00 60 1002.1
20260509134557 60 0 0.0 3.0 0.00 0.00 0.00 59 1002.0
20260509134047 60 0 0.0 5.0 0.00 0.00 0.00 63 1002.1
20260509133547 60 200 1.0 5.0 0.00 0.00 0.00 67 1002.2
20260509133101 59 228 1.0 5.0 0.00 0.00 0.00 69 1002.2
20260509132547 59 194 0.0 4.0 0.00 0.00 0.00 71 1002.2
20260509132050 58 0 1.0 4.0 0.00 0.00 0.00 72 1002.2
20260509131556 58 192 1.0 5.0 0.00 0.00 0.00 72 1002.2
20260509131048 58 256 1.0 5.0 0.00 0.00 0.00 74 1002.1
20260509130547 57 0 1.0 4.0 0.00 0.00 0.00 75 1001.7
20260509125547 56 215 0.0 4.0 0.00 0.00 0.00 76 1001.8
20260509125044 56 196 2.0 4.0 0.00 0.00 0.00 77 1001.9
20260509124605 56 0 0.0 5.0 0.00 0.00 0.00 78 1001.9
20260509124044 55 215 2.0 5.0 0.00 0.00 0.00 79 1001.8
20260509123549 55 190 1.0 7.0 0.00 0.00 0.00 80 1001.8
20260509123057 55 232 1.0 7.0 0.00 0.00 0.00 80 1001.9
20260509122543 55 214 2.0 7.0 0.00 0.00 0.00 81 1001.9
20260509122047 54 175 1.0 6.0 0.00 0.00 0.00 82 1001.9
20260509121552 54 208 0.0 4.0 0.00 0.00 0.00 82 1002.0
20260509121048 54 210 0.0 5.0 0.00 0.00 0.00 83 1002.0
20260509120545 54 0 1.0 5.0 0.00 0.00 0.00 83 1002.0
20260509120050 54 215 1.0 5.0 0.00 0.00 0.00 84 1001.9
20260509115545 53 0 1.0 5.0 0.00 0.00 0.00 84 1001.9
20260509115045 53 0 1.0 5.0 0.00 0.00 0.00 84 1001.7
20260509114556 53 196 1.0 5.0 0.00 0.00 0.00 84 1001.7
20260509114045 53 190 1.0 5.0 0.00 0.00 0.00 84 1001.8
20260509113545 53 207 1.0 5.0 0.00 0.00 0.00 84 1001.7
20260509113050 53 232 1.0 4.0 0.00 0.00 0.00 84 1001.7
20260509112545 53 200 1.0 4.0 0.00 0.00 0.00 84 1001.5
20260509112045 53 199 1.0 3.0 0.00 0.00 0.00 84 1001.5
20260509111553 53 228 0.0 3.0 0.00 0.00 0.00 84 1001.4
20260509111045 53 203 1.0 4.0 0.00 0.00 0.00 83 1001.5
20260509110545 53 225 0.0 4.0 0.00 0.00 0.00 83 1001.5
20260509110057 53 205 1.0 4.0 0.00 0.00 0.00 83 1001.3
20260509105545 53 226 1.0 4.0 0.00 0.00 0.00 84 1001.2
20260509105045 53 205 0.0 4.0 0.00 0.00 0.00 83 1001.2
20260509104548 53 219 1.0 5.0 0.00 0.00 0.00 83 1001.2
20260509104044 53 216 1.0 6.0 0.00 0.00 0.00 83 1001.1
20260509103545 53 207 2.0 6.0 0.00 0.00 0.00 83 1001.0
20260509103050 53 222 2.0 5.0 0.00 0.00 0.00 83 1000.8
20260509102545 53 219 1.0 5.0 0.00 0.00 0.00 83 1000.8
20260509102046 53 198 2.0 5.0 0.00 0.00 0.00 83 1000.8
20260509101555 53 0 1.0 6.0 0.00 0.00 0.00 83 1000.8
20260509101044 53 196 0.0 6.0 0.00 0.00 0.00 82 1000.9
20260509100545 53 198 2.0 7.0 0.00 0.00 0.00 82 1000.9
20260509100108 53 209 1.0 7.0 0.00 0.00 0.00 82 1001.0
20260509095546 53 221 2.0 6.0 0.00 0.00 0.00 82 1000.8
20260509095045 53 193 3.0 6.0 0.00 0.00 0.00 82 1001.2
20260509094551 54 0 2.0 6.0 0.00 0.00 0.00 82 1001.3
20260509094045 54 220 2.0 6.0 0.00 0.00 0.00 81 1001.3
20260509093545 54 209 2.0 8.0 0.00 0.00 0.00 81 1001.2
20260509093055 54 234 3.0 8.0 0.00 0.00 0.00 81 1001.2
20260509092545 54 221 2.0 8.0 0.00 0.00 0.00 81 1001.3
20260509092046 54 0 2.0 6.0 0.00 0.00 0.00 81 1001.3
20260509091552 54 220 1.0 7.0 0.00 0.00 0.00 81 1001.4
20260509091047 54 201 2.0 7.0 0.00 0.00 0.00 81 1001.2
20260509090548 54 243 3.0 7.0 0.00 0.00 0.00 81 1001.2
20260509090052 54 234 2.0 6.0 0.00 0.00 0.00 81 1001.3
20260509085545 54 223 3.0 8.0 0.00 0.00 0.00 81 1001.2
20260509085044 54 215 4.0 8.0 0.00 0.00 0.00 81 1001.3
20260509084558 54 202 3.0 8.0 0.00 0.00 0.00 81 1001.2
20260509084046 54 207 2.0 7.0 0.00 0.00 0.00 81 1001.3
20260509083545 54 197 2.0 7.0 0.00 0.00 0.00 81 1001.4
20260509083051 54 201 2.0 7.0 0.00 0.00 0.00 81 1001.4
20260509082545 54 208 3.0 7.0 0.00 0.00 0.00 81 1001.4
20260509082047 54 207 3.0 7.0 0.00 0.00 0.00 82 1001.3
20260509081552 54 219 3.0 7.0 0.00 0.00 0.00 81 1001.4
20260509081045 54 236 3.0 7.0 0.00 0.00 0.00 81 1001.4
20260509080545 54 218 4.0 9.0 0.00 0.00 0.00 81 1001.4
20260509080129 54 201 3.0 9.0 0.00 0.00 0.00 81 1001.4
20260509075547 54 212 3.0 7.0 0.00 0.00 0.00 81 1001.6
20260509075047 54 198 3.0 6.0 0.00 0.00 0.00 81 1001.5
20260509074557 54 209 3.0 6.0 0.00 0.00 0.00 81 1001.6
20260509074046 54 186 2.0 6.0 0.00 0.00 0.00 80 1001.6
20260509073546 55 197 2.0 6.0 0.00 0.00 0.00 80 1001.6
20260509073156 55 196 3.0 7.0 0.00 0.00 0.00 80 1001.6
20260509072546 55 215 3.0 7.0 0.00 0.00 0.00 80 1001.6
20260509072045 55 236 3.0 7.0 0.00 0.00 0.00 79 1001.6
20260509071551 55 186 3.0 7.0 0.00 0.00 0.00 78 1001.8
20260509071046 55 194 4.0 8.0 0.00 0.00 0.00 78 1001.7
20260509070545 56 200 4.0 8.0 0.00 0.00 0.00 78 1001.8
20260509070054 56 201 3.0 8.0 0.00 0.00 0.00 77 1001.8
20260509065545 56 220 3.0 10.0 0.00 0.00 0.00 78 1002.1
20260509065047 56 210 3.0 10.0 0.00 0.00 0.00 76 1002.1
20260509064550 56 224 4.0 9.0 0.00 0.00 0.00 76 1002.2
20260509064047 56 202 2.0 8.0 0.00 0.00 0.00 75 1002.3
20260509063547 56 0 3.0 9.0 0.00 0.00 0.00 75 1002.4
20260509063049 56 229 4.0 9.0 0.00 0.00 0.00 74 1002.3
20260509062544 56 215 3.0 6.0 0.00 0.00 0.00 75 1002.5
20260509062045 55 215 3.0 7.0 0.00 0.00 0.00 74 1002.6
20260509061558 55 207 3.0 7.0 0.00 0.00 0.00 74 1002.7
20260509061045 55 233 3.0 6.0 0.00 0.00 0.00 73 1002.8
20260509060547 55 221 2.0 6.0 0.00 0.00 0.00 72 1002.8
20260509060051 55 202 2.0 7.0 0.00 0.00 0.00 73 1002.8
20260509055548 54 202 3.0 7.0 0.00 0.00 0.00 73 1002.9
20260509055044 54 205 2.0 6.0 0.00 0.00 0.00 73 1002.8
20260509054549 54 223 2.0 5.0 0.00 0.00 0.00 72 1002.9
20260509054045 53 200 1.0 5.0 0.00 0.00 0.00 72 1003.1
20260509053546 53 198 2.0 5.0 0.00 0.00 0.00 74 1003.2
20260509053052 53 208 2.0 5.0 0.00 0.00 0.00 75 1003.2
20260509052545 53 211 1.0 6.0 0.00 0.00 0.00 76 1003.4
20260509052046 53 201 3.0 6.0 0.00 0.00 0.00 77 1003.3
20260509051558 52 192 2.0 6.0 0.00 0.00 0.00 78 1003.4
20260509051046 52 205 3.0 4.0 0.00 0.00 0.00 78 1003.4
20260509050544 52 202 1.0 6.0 0.00 0.00 0.00 79 1003.5
20260509050053 52 211 2.0 7.0 0.00 0.00 0.00 80 1003.6
20260509045547 52 187 4.0 7.0 0.00 0.00 0.00 79 1003.5
20260509045046 52 185 4.0 7.0 0.00 0.00 0.00 79 1003.5
20260509044554 52 198 4.0 7.0 0.00 0.00 0.00 78 1003.3
20260509044045 52 191 4.0 7.0 0.00 0.00 0.00 78 1003.3
20260509043546 52 183 2.0 6.0 0.00 0.00 0.00 77 1003.3
20260509043055 52 188 3.0 6.0 0.00 0.00 0.00 77 1003.4
20260509042547 52 178 3.0 5.0 0.00 0.00 0.00 76 1003.6
20260509042045 52 194 4.0 6.0 0.00 0.00 0.00 76 1003.5
20260509041552 52 190 4.0 6.0 0.00 0.00 0.00 77 1003.5
20260509041047 52 192 4.0 6.0 0.00 0.00 0.00 76 1003.5
20260509040544 52 195 3.0 6.0 0.00 0.00 0.00 77 1003.5
20260509035547 52 192 4.0 7.0 0.00 0.00 0.00 75 1003.4
20260509035045 52 180 4.0 7.0 0.00 0.00 0.00 75 1003.5
20260509034551 52 182 4.0 7.0 0.00 0.00 0.00 75 1003.5
20260509034044 52 190 4.0 7.0 0.00 0.00 0.00 75 1003.5
20260509033547 52 196 4.0 7.0 0.00 0.00 0.00 75 1003.6
20260509033050 52 180 4.0 7.0 0.00 0.00 0.00 75 1003.5
20260509032547 52 177 4.0 7.0 0.00 0.00 0.00 75 1003.6
20260509032048 53 186 5.0 8.0 0.00 0.00 0.00 74 1003.6
20260509031554 53 184 4.0 8.0 0.00 0.00 0.00 74 1003.7
20260509031047 53 184 5.0 8.0 0.00 0.00 0.00 73 1003.8
20260509030545 53 191 5.0 7.0 0.00 0.00 0.00 73 1003.8
20260509030053 53 188 5.0 7.0 0.00 0.00 0.00 73 1003.9
20260509025545 53 178 4.0 7.0 0.00 0.00 0.00 74 1004.0
20260509025045 53 178 4.0 8.0 0.00 0.00 0.00 73 1003.8
20260509024550 53 189 4.0 8.0 0.00 0.00 0.00 73 1003.9
20260509024043 53 198 4.0 7.0 0.00 0.00 0.00 73 1004.0
20260509023545 53 183 3.0 6.0 0.00 0.00 0.00 73 1004.0
20260509023050 53 186 3.0 7.0 0.00 0.00 0.00 72 1004.0
20260509022544 53 175 3.0 7.0 0.00 0.00 0.00 72 1004.1
20260509022048 53 186 3.0 7.0 0.00 0.00 0.00 71 1004.1
20260509021552 53 188 2.0 5.0 0.00 0.00 0.00 71 1004.1
20260509021047 53 196 1.0 6.0 0.00 0.00 0.00 70 1004.1
20260509020547 53 0 1.0 6.0 0.00 0.00 0.00 70 1004.0
20260509020054 53 186 2.0 6.0 0.00 0.00 0.00 68 1004.1
20260509015545 54 187 0.0 7.0 0.00 0.00 0.00 67 1004.3
20260509015046 54 198 2.0 7.0 0.00 0.00 0.00 67 1004.2
20260509014549 54 180 1.0 6.0 0.00 0.00 0.00 67 1004.2
20260509014051 55 188 2.0 8.0 0.00 0.00 0.00 68 1004.3
20260509013548 55 196 3.0 8.0 0.00 0.00 0.00 66 1004.3
20260509013101 55 186 5.0 8.0 0.00 0.00 0.00 67 1004.3
20260509012547 56 192 4.0 8.0 0.00 0.00 0.00 67 1004.3
20260509012046 56 192 5.0 8.0 0.00 0.00 0.00 68 1004.4
20260509011553 56 180 4.0 7.0 0.00 0.00 0.00 66 1004.5
20260509011046 56 178 3.0 6.0 0.00 0.00 0.00 66 1004.4
20260509010547 57 189 1.0 9.0 0.00 0.00 0.00 65 1004.5
20260509010056 57 0 3.0 9.0 0.00 0.00 0.00 64 1004.5
20260509005548 57 190 5.0 10.0 0.00 0.00 0.00 65 1004.5
20260509005047 58 172 6.0 10.0 0.00 0.00 0.00 64 1004.5
20260509004610 58 181 4.0 10.0 0.00 0.00 0.00 65 1004.5
20260509004049 58 193 5.0 10.0 0.00 0.00 0.00 64 1004.4
20260509003547 58 194 3.0 9.0 0.00 0.00 0.00 60 1004.5
20260509003052 59 194 3.0 9.0 0.00 0.00 0.00 60 1004.5
20260509002548 59 198 4.0 8.0 0.00 0.00 0.00 60 1004.5
20260509002047 59 185 4.0 10.0 0.00 0.00 0.00 57 1004.5
20260509001551 59 205 4.0 10.0 0.00 0.00 0.00 58 1004.5
20260509001048 59 172 4.0 10.0 0.00 0.00 0.00 55 1004.6
20260509000545 59 200 3.0 10.0 0.00 0.00 0.00 54 1004.5
20260509000051 59 188 6.0 10.0 0.00 0.00 0.00 55 1004.7
20260508235547 60 183 3.0 8.0 0.00 0.00 0.00 54 1004.7
20260508235046 60 196 2.0 9.0 0.00 0.00 0.00 49 1004.7
20260508234552 60 157 3.0 9.0 0.00 0.00 0.00 51 1004.8
20260508234047 60 182 3.0 11.0 0.00 0.00 0.00 50 1004.8
20260508233548 60 163 4.0 11.0 0.00 0.00 0.00 46 1004.8
20260508233059 60 181 3.0 9.0 0.00 0.00 0.00 48 1005.1
20260508232547 61 203 3.0 8.0 0.00 0.00 0.00 42 1005.0
20260508232046 61 0 3.0 10.0 0.00 0.00 0.00 43 1004.9
20260508231552 62 205 4.0 10.0 0.00 0.00 0.00 43 1005.0
20260508231046 63 161 3.0 9.0 0.00 0.00 0.00 41 1005.0
20260508230546 65 0 1.0 5.0 0.00 0.00 0.00 41 1005.1
20260508230059 65 194 1.0 4.0 0.00 0.00 0.00 32 1005.0
20260508225546 65 0 0.0 2.0 0.00 0.00 0.00 34 1005.0
20260508225048 65 0 0.0 4.0 0.00 0.00 0.00 34 1005.0
20260508224550 65 194 0.0 7.0 0.00 0.00 0.00 39 1004.9
20260508224047 65 197 3.0 7.0 0.00 0.00 0.00 36 1005.0
20260508223547 65 197 2.0 8.0 0.00 0.00 0.00 33 1005.0
20260508223052 65 209 2.0 8.0 0.00 0.00 0.00 38 1005.1
20260508222546 65 221 4.0 8.0 0.00 0.00 0.00 36 1005.1
20260508222046 66 197 3.0 7.0 0.00 0.00 0.00 38 1005.1
20260508221551 66 217 2.0 7.0 0.00 0.00 0.00 35 1005.1
20260508221047 65 196 0.0 3.0 0.00 0.00 0.00 34 1005.1
20260508220547 65 225 1.0 6.0 0.00 0.00 0.00 33 1005.2
20260508220104 65 260 2.0 6.0 0.00 0.00 0.00 32 1005.2
20260508215546 66 230 2.0 6.0 0.00 0.00 0.00 34 1005.2
20260508215048 65 177 2.0 6.0 0.00 0.00 0.00 33 1005.1
20260508214551 65 216 2.0 6.0 0.00 0.00 0.00 35 1005.2
20260508214046 66 182 0.0 6.0 0.00 0.00 0.00 29 1005.2
20260508213547 66 267 0.0 6.0 0.00 0.00 0.00 30 1005.2
20260508213051 66 209 3.0 6.0 0.00 0.00 0.00 32 1005.3
20260508212547 66 211 1.0 6.0 0.00 0.00 0.00 28 1005.4
20260508212046 66 0 3.0 8.0 0.00 0.00 0.00 32 1005.5
20260508211557 66 213 2.0 10.0 0.00 0.00 0.00 31 1005.5
20260508211046 66 200 4.0 10.0 0.00 0.00 0.00 34 1005.3
20260508210548 67 161 0.0 7.0 0.00 0.00 0.00 32 1005.5
20260508210106 67 212 2.0 9.0 0.00 0.00 0.00 34 1005.7
20260508205547 67 210 3.0 9.0 0.00 0.00 0.00 31 1005.8
20260508205047 68 205 0.0 12.0 0.00 0.00 0.00 33 1005.8
20260508204557 66 216 4.0 12.0 0.00 0.00 0.00 29 1006.0
20260508204046 67 189 5.0 11.0 0.00 0.00 0.00 34 1006.0
20260508203547 67 188 3.0 6.0 0.00 0.00 0.00 35 1006.1
20260508203054 67 193 3.0 6.0 0.00 0.00 0.00 34 1006.3
20260508202547 67 208 3.0 6.0 0.00 0.00 0.00 36 1006.1
20260508202046 69 210 3.0 5.0 0.00 0.00 0.00 34 1006.3
20260508201558 69 0 0.0 9.0 0.00 0.00 0.00 34 1006.3
20260508201046 69 207 2.0 9.0 0.00 0.00 0.00 31 1006.4
20260508200546 68 184 2.0 8.0 0.00 0.00 0.00 31 1006.5
20260508200058 67 0 0.0 8.0 0.00 0.00 0.00 35 1006.5
20260508195545 66 196 1.0 9.0 0.00 0.00 0.00 36 1006.6
20260508195045 66 195 4.0 10.0 0.00 0.00 0.00 31 1006.7
20260508194551 65 236 3.0 10.0 0.00 0.00 0.00 36 1006.7
20260508194049 65 178 4.0 11.0 0.00 0.00 0.00 38 1006.9
20260508193543 65 211 3.0 12.0 0.00 0.00 0.00 35 1006.9
20260508193102 65 173 6.0 12.0 0.00 0.00 0.00 40 1007.0
20260508192547 65 203 5.0 12.0 0.00 0.00 0.00 36 1007.0
20260508192047 65 172 2.0 9.0 0.00 0.00 0.00 37 1007.0
20260508191555 65 197 2.0 10.0 0.00 0.00 0.00 38 1007.1
20260508191046 65 190 4.0 10.0 0.00 0.00 0.00 33 1007.1
20260508190547 66 190 3.0 10.0 0.00 0.00 0.00 33 1007.2
20260508185546 67 0 0.0 7.0 0.00 0.00 0.00 33 1007.4
20260508185046 66 184 2.0 7.0 0.00 0.00 0.00 36 1007.5
20260508184624 66 194 2.0 7.0 0.00 0.00 0.00 33 1007.6
20260508184045 65 197 3.0 8.0 0.00 0.00 0.00 35 1007.6
20260508183545 65 207 3.0 13.0 0.00 0.00 0.00 33 1007.7
20260508183051 64 209 3.0 13.0 0.00 0.00 0.00 33 1007.6
20260508182547 65 188 5.0 8.0 0.00 0.00 0.00 37 1007.7
20260508182045 66 190 2.0 5.0 0.00 0.00 0.00 35 1007.8
20260508181604 67 217 0.0 8.0 0.00 0.00 0.00 30 1007.9
20260508181049 64 169 3.0 8.0 0.00 0.00 0.00 32 1007.9
20260508180546 64 196 4.0 8.0 0.00 0.00 0.00 37 1008.0
20260508180053 65 209 0.0 6.0 0.00 0.00 0.00 33 1008.0
20260508175547 63 0 2.0 7.0 0.00 0.00 0.00 39 1008.1
20260508175047 62 188 1.0 7.0 0.00 0.00 0.00 30 1008.2
20260508174551 62 194 3.0 7.0 0.00 0.00 0.00 35 1008.3
20260508174046 62 0 3.0 9.0 0.00 0.00 0.00 35 1008.2
20260508173547 62 178 2.0 9.0 0.00 0.00 0.00 43 1008.5
20260508173053 61 193 4.0 9.0 0.00 0.00 0.00 37 1008.4
20260508172545 61 200 2.0 9.0 0.00 0.00 0.00 39 1008.6
20260508172046 61 188 3.0 9.0 0.00 0.00 0.00 39 1008.6